User: anonymous   Login
Location: Vancouver
(49.2500°N, 123.1330°W)
Time: 14:41:15
(UTC-07:00)
Language:

Cosmos 2333 Rocket - Orbit

View from above orbital plane
View from above orbital plane
View from above satellite
View from above satellite

Ground track
Ground track

The orbit data is extracted from the following two-line orbital elements,

1 24298U 96051B   16211.50081604  .00000115  00000-0  88662-4 0  9992
2 24298  70.8382  22.2195 0017920 293.6630  66.2609 14.12417199 26257
Epoch (UTC): 29 July 2016 12:01:10
Eccentricity: 0.0017920
inclination: 70.8382°
perigee height: 838 km
apogee height: 864 km
right ascension of ascending node: 22.2195°
argument of perigee: 293.6630°
revolutions per day: 14.12417199
mean anomaly at epoch: 66.2609°
orbit number at epoch: 2625

The dashed part of the orbit path shows where the satellite is in the earth's shadow,  

DLR